[[{"header":{"parameterUnit":"m.s-1","parameterCategory":2,"la1":30.2991,"la2":30.254,"lo1":-89.0895,"lo2":-89.0444,"dy":0.0017,"dx":0.0017,"nx":28,"ny":28,"refTime":"2026-02-03T09:00:00:Z","depth":"0","parameterNumber":2,"parameterNumberName":"U-component_of_CURRENTS"},"data":[0,0,0,0,0,0,0,0,0,0,0,0,0,0,0,0,0,0,0,0,0,0,0,0,0,0,0,0,0,0,0,0,0,0,0,0,0,0,0,0,0,0,0,0,0,0,0,0,0,0,0,0,0,0,0,0,0,0,0.3398,0.3399,0,0.3425,0.3426,0.3426,0.3451,0.3451,0.3452,0.3452,0.3495,0.3496,0.3496,0,0,0,0,0,0,0,0,0,0,0,0,0,0.3349,0.335,0.3398,0.3399,0.3399,0.3425,0.3426,0.3426,0.3451,0.3451,0.3452,0.3452,0.3495,0.3495,0.3496,0,0,0,0,0,0,0,0,0,0,0,0,0,0.3371,0.335,0.3398,0.3416,0.3418,0.3425,0.3426,0.3426,0.345,0.3451,0.3452,0.3452,0.3494,0.3495,0.3496,0.3489,0,0,0.35,0.35,0,0,0,0,0,0,0,0,0.337,0.3373,0.3413,0.3415,0.3417,0.3437,0.3424,0.3448,0.345,0.3436,0.3452,0.3453,0.3478,0.348,0.3481,0.3491,0.3493,0.35,0.35,0.3501,0.3501,0,0,0,0,0,0,0,0.3368,0.3372,0.3407,0.3413,0.3416,0.3417,0.342,0.3429,0.3452,0.3437,0.344,0.3446,0.3479,0.348,0.3482,0.3493,0.35,0.3501,0.3501,0.3502,0.3499,0.3498,0,0,0,0,0,0,0.3369,0.337,0.3406,0.3408,0.3397,0.3417,0.3421,0.3428,0.3451,0.3456,0.3445,0.3447,0.3478,0.3481,0.3484,0.345,0.3501,0.3502,0.3502,0.35,0.3499,0.3498,0,0,0,0,0,0,0.3368,0.3372,0.3405,0.3391,0.3396,0.3418,0.3425,0.3429,0.3424,0.3457,0.3462,0.3437,0.3478,0.3482,0.3477,0.3453,0.3502,0.3503,0.3501,0.35,0.3499,0.3399,0,0,0,0,0,0,0.3366,0.3371,0.3367,0.3391,0.3397,0.3393,0.3425,0.3429,0.3428,0.343,0.3451,0.3457,0.3479,0.3475,0.3478,0.3455,0.3504,0.3502,0.35,0.3499,0.3403,0.3394,0.3387,0,0,0,0,0,0.3364,0.3354,0.3367,0.3371,0.3394,0.3392,0.3394,0.3411,0.3427,0.3412,0.3428,0.3456,0.3469,0.3474,0.3478,0.3455,0.3502,0.3501,0.3499,0.3406,0.3396,0.3387,0,0,0,0,0,0,0.3324,0.3357,0.3371,0.337,0.3375,0.3397,0.3385,0.3401,0.3403,0.3405,0.3439,0.3444,0.3437,0.3459,0.3464,0.3454,0.3493,0.3492,0.3422,0.3412,0.3404,0.3399,0.3505,0,0,0,0,0,0.3316,0.3319,0.3344,0.3338,0.334,0.3361,0.3361,0.3373,0.3383,0.3385,0.3399,0.3418,0.3433,0.3432,0.345,0.3432,0.3477,0.3424,0.3416,0.3409,0.3409,0.3466,0.3463,0.3493,0.3493,0.3493,0,0,0.3298,0.3316,0.3317,0.333,0.3336,0.3322,0.3361,0.3353,0.3338,0.3389,0.3363,0.3392,0.3426,0.3412,0.341,0.3424,0.3419,0.3407,0.3401,0.3404,0.3464,0.3461,0.3459,0.3492,0.3492,0.3492,0,0,0.3263,0.3277,0.3269,0.3268,0.3277,0.3285,0.3279,0.3291,0.3291,0.3275,0.3315,0.3323,0.3333,0.3351,0.3364,0.3323,0.3383,0.3332,0.3275,0.3329,0.3327,0.3326,0.3356,0.3359,0.3319,0.3318,0.3318,0,0.3239,0.3237,0.3261,0.3247,0.3238,0.3263,0.3239,0.3237,0.3243,0.3237,0.3254,0.3279,0.3305,0.3301,0.3289,0.3303,0.3343,0.3303,0.3318,0.3319,0.3319,0.3351,0.3355,0.3314,0.3314,0.3315,0.3315,0,0.3204,0.3193,0.318,0.3175,0.3162,0.3142,0.3148,0.3131,0.3136,0.3144,0.314,0.3176,0.3196,0.3201,0.3231,0.3241,0.3269,0.3308,0.334,0.331,0.3345,0.3351,0.3306,0.3308,0.331,0.3311,0,0,0.3184,0.3161,0.3157,0.3136,0.3123,0.3108,0.3071,0.3052,0.3034,0.3039,0.3025,0.3047,0.3082,0.3102,0.3142,0.3177,0.3207,0.3236,0.3242,0.326,0.3316,0.3235,0.3234,0.3256,0.3257,0.3257,0.333,0,0.3149,0.3107,0.3103,0.3046,0.3022,0.3017,0.2981,0.2966,0.2963,0.2952,0.2989,0.2999,0.304,0.3057,0.3095,0.3193,0.3223,0.3183,0.3348,0.3352,0.3279,0.3238,0.3062,0.3104,0.3337,0.3338,0.3339,0,0.3129,0.31,0.3043,0.2987,0.2975,0.2942,0.2894,0.2869,0.2862,0.2865,0.2879,0.292,0.2961,0.3014,0.3139,0.3116,0.3205,0.3274,0.328,0.3246,0.3282,0.3178,0.3107,0.2931,0.3349,0.3348,0.3347,0,0.3123,0.306,0.3011,0.2992,0.2934,0.2901,0.2871,0.2845,0.2822,0.2826,0.2821,0.2874,0.2915,0.3026,0.3151,0.3161,0.3296,0.3334,0.3336,0.3331,0.3233,0.3217,0.3007,0.3425,0.3425,0.3425,0.3425,0,0.3104,0.3068,0.3003,0.2979,0.291,0.2882,0.2824,0.2804,0.2782,0.2757,0.2791,0.2797,0.2928,0.301,0.3133,0.3234,0.3287,0.3312,0.3341,0.3189,0.3169,0.3057,0.3018,0.3428,0.3427,0.3427,0.3426,0,0.3122,0.308,0.302,0.2941,0.2911,0.2871,0.2795,0.2758,0.2745,0.2719,0.2722,0.2759,0.2856,0.2969,0.3148,0.3198,0.3201,0.3347,0.3138,0.3138,0.2943,0.2907,0.2747,0.2723,0.3342,0.334,0.3339,0,0.3131,0.3103,0.3002,0.2953,0.2917,0.2849,0.2798,0.2754,0.2717,0.2698,0.2688,0.2747,0.2785,0.2962,0.3061,0.3203,0.3138,0.3107,0.3084,0.2875,0.2859,0.2784,0.2772,0.2919,0.2914,0.291,0.2907,0,0.3139,0.3104,0.3045,0.2951,0.2883,0.2804,0.2734,0.2701,0.2654,0.2635,0.2627,0.2655,0.276,0.2781,0.2912,0.2997,0.2881,0.3031,0.2875,0.254,0.2387,0.2395,0.2921,0.2872,0.2876,0.2878,0.288,0.2882,0.314,0.3101,0.3016,0.293,0.2849,0.2762,0.2694,0.2639,0.2585,0.253,0.2581,0.2574,0.2515,0.2661,0.2718,0.2561,0.2692,0.2475,0.2464,0.2417,0.2317,0.2742,0.2687,0.2689,0.2691,0.2693,0.2695,0,0.312,0.3069,0.2994,0.2868,0.2777,0.2743,0.264,0.2569,0.2503,0.2479,0.2469,0.2331,0.2253,0.221,0.2056,0.1976,0.1982,0.1899,0.173,0.1774,0.218,0.2079,0.1812,0.1812,0.1813,0.1813,0.1813,0.1813,0.3092,0.3018,0.2977,0.2824,0.274,0.2601,0.2542,0.2457,0.2407,0.2256,0.2149,0.2106,0.1862,0.1557,0.1349,0.137,0.1308,0.1219,0.1324,0.1536,0.1588,0.1637,0.1525,0.1146,0.1146,0.0834,0.0831,0.0828]},{"header":{"parameterUnit":"m.s-1","parameterCategory":2,"la1":30.2991,"la2":30.254,"lo1":-89.0895,"lo2":-89.0444,"dy":0.0017,"dx":0.0017,"nx":28,"ny":28,"refTime":"2026-02-03T09:00:00:Z","depth":"0","parameterNumber":3,"parameterNumberName":"V-component_of_CURRENTS"},"data":[0,0,0,0,0,0,0,0,0,0,0,0,0,0,0,0,0,0,0,0,0,0,0,0,0,0,0,0,0,0,0,0,0,0,0,0,0,0,0,0,0,0,0,0,0,0,0,0,0,0,0,0,0,0,0,0,0,0,0.009,0.0091,0,0.0169,0.017,0.0171,0.0195,0.0194,0.0193,0.0193,0.0325,0.0329,0.0333,0,0,0,0,0,0,0,0,0,0,0,0,0,0.0035,0.0035,0.009,0.0091,0.0092,0.0169,0.017,0.0172,0.0195,0.0194,0.0193,0.0193,0.0324,0.0329,0.0333,0,0,0,0,0,0,0,0,0,0,0,0,0,0.0083,0.0036,0.009,0.0111,0.0113,0.0169,0.017,0.0172,0.0195,0.0194,0.0193,0.0192,0.0322,0.0328,0.0334,0.0392,0,0,0.0353,0.0356,0,0,0,0,0,0,0,0,0.008,0.0085,0.0107,0.0109,0.0112,0.0169,0.0199,0.0247,0.0195,0.0167,0.0193,0.0192,0.0277,0.0287,0.0307,0.0398,0.0403,0.0354,0.0357,0.036,0.0362,0,0,0,0,0,0,0,0.0077,0.0082,0.0124,0.0108,0.0111,0.0142,0.0147,0.0209,0.0229,0.0169,0.017,0.0175,0.0279,0.03,0.031,0.0405,0.0353,0.0359,0.0363,0.0365,0.0573,0.0575,0,0,0,0,0,0,0.0059,0.0079,0.0121,0.0126,0.0091,0.0143,0.0149,0.0154,0.0227,0.0236,0.0176,0.0176,0.029,0.0303,0.0315,0.0394,0.036,0.0366,0.0369,0.0572,0.0574,0.0576,0,0,0,0,0,0,0.0058,0.0062,0.0118,0.0102,0.0111,0.0144,0.015,0.0156,0.0173,0.0232,0.0242,0.0186,0.029,0.0306,0.0382,0.0399,0.0369,0.0374,0.057,0.0572,0.0575,0.0549,0,0,0,0,0,0,0.0056,0.0061,0.0061,0.0101,0.0111,0.0147,0.0151,0.0158,0.0177,0.0178,0.0244,0.0255,0.0291,0.0373,0.0388,0.0407,0.0379,0.0567,0.0571,0.0574,0.0547,0.055,0.0553,0,0,0,0,0,0.0054,0.0051,0.006,0.0066,0.0109,0.0148,0.0156,0.0178,0.0178,0.019,0.0244,0.0253,0.0405,0.038,0.0397,0.0418,0.0566,0.057,0.0574,0.0546,0.055,0.0553,0,0,0,0,0,0,0.0023,0.0055,0.0065,0.0071,0.0106,0.015,0.0159,0.0178,0.023,0.0231,0.0284,0.0301,0.0371,0.0407,0.0378,0.0491,0.0485,0.0492,0.0457,0.0461,0.0464,0.0431,0.0384,0,0,0,0,0,0.0017,0.0025,0.0064,0.007,0.0083,0.0123,0.014,0.0159,0.0207,0.0227,0.0277,0.0339,0.0405,0.044,0.05,0.0568,0.0574,0.0593,0.0596,0.0598,0.0585,0.0615,0.0618,0.0589,0.0589,0.0589,0,0,0.0006,0.0025,0.0029,0.0065,0.0089,0.0117,0.0131,0.0156,0.0186,0.0237,0.0295,0.0351,0.0426,0.0498,0.0532,0.0529,0.0611,0.0603,0.0604,0.059,0.062,0.0622,0.0624,0.0592,0.0592,0.0591,0,0,-0.0011,0.0005,0.0007,0.0038,0.0074,0.0107,0.0113,0.0163,0.019,0.0259,0.0303,0.0365,0.0467,0.0519,0.056,0.0618,0.0623,0.0643,0.0632,0.0662,0.0663,0.0664,0.067,0.0672,0.0646,0.0646,0.0646,0,-0.003,-0.0015,0.0015,0.0032,0.0056,0.01,0.0119,0.0161,0.0234,0.0266,0.0272,0.0419,0.0474,0.0563,0.0582,0.062,0.063,0.0608,0.0661,0.0662,0.0664,0.067,0.0672,0.0645,0.0645,0.0645,0.0645,0,-0.0038,-0.002,-0.0016,0.0023,0.0056,0.0079,0.0139,0.0179,0.0217,0.0264,0.035,0.0428,0.0509,0.0543,0.0581,0.0636,0.0636,0.0654,0.0639,0.0664,0.067,0.0673,0.0644,0.0644,0.0644,0.0644,0,0,-0.0101,-0.0036,-0.0035,-0.0008,0.0054,0.0083,0.0136,0.0202,0.0242,0.0309,0.0364,0.0467,0.0496,0.0544,0.06,0.0628,0.0648,0.0642,0.0644,0.0623,0.0696,0.0685,0.0687,0.0673,0.0674,0.0675,0.0691,0,-0.0119,-0.0088,-0.0047,-0.0004,0.0021,0.0087,0.0138,0.0205,0.0268,0.0337,0.0407,0.0485,0.0503,0.0546,0.0574,0.0652,0.0656,0.0641,0.0695,0.0696,0.0664,0.0691,0.0736,0.0754,0.0694,0.0695,0.0695,0,-0.0145,-0.0115,-0.0085,-0.0002,0.0013,0.0048,0.0138,0.0193,0.0295,0.0343,0.0412,0.0474,0.0552,0.055,0.0638,0.0629,0.0643,0.0677,0.068,0.0677,0.0692,0.0724,0.0762,0.0726,0.07,0.0699,0.0699,0,-0.02,-0.0139,-0.0113,-0.0087,0.0006,0.0035,0.0088,0.0186,0.0249,0.0344,0.04,0.0483,0.0551,0.0583,0.0659,0.0649,0.0737,0.0736,0.0726,0.0725,0.0776,0.0779,0.0765,0.0749,0.0749,0.0749,0.0749,0,-0.0232,-0.0209,-0.0138,-0.012,-0.0072,-0.0002,0.0064,0.0131,0.0233,0.0321,0.0393,0.0482,0.0562,0.0636,0.0661,0.0715,0.0736,0.0718,0.0732,0.077,0.0771,0.0753,0.0722,0.075,0.075,0.075,0.075,0,-0.0285,-0.0245,-0.0205,-0.0124,-0.0097,-0.0062,0.0051,0.0113,0.0199,0.0315,0.0348,0.0494,0.0605,0.0667,0.0751,0.0736,0.0779,0.0774,0.08,0.0816,0.0751,0.0717,0.0717,0.0769,0.0756,0.0756,0.0756,0,-0.0305,-0.0294,-0.0219,-0.0185,-0.0147,-0.0082,-0.0022,0.008,0.0157,0.0339,0.04,0.0538,0.0678,0.0784,0.0805,0.0833,0.0807,0.0824,0.0802,0.0746,0.072,0.0702,0.0746,0.0863,0.0864,0.0864,0.0865,0,-0.0327,-0.0308,-0.0265,-0.0204,-0.0149,-0.0072,0.0018,0.0074,0.0218,0.0333,0.0516,0.0642,0.0774,0.0875,0.0887,0.0889,0.0825,0.0833,0.0792,0.0805,0.0773,0.0831,0.083,0.0871,0.087,0.087,0.0869,0.0869,-0.0335,-0.031,-0.0253,-0.0194,-0.0132,-0.0043,0.0035,0.0151,0.0293,0.051,0.0591,0.082,0.0892,0.0959,0.0945,0.0882,0.0874,0.0839,0.0804,0.079,0.0836,0.082,0.0865,0.0865,0.0864,0.0864,0.0863,0,-0.0317,-0.0279,-0.023,-0.0145,-0.0076,-0.0042,0.0091,0.0199,0.0385,0.0588,0.0771,0.0957,0.1012,0.1018,0.0925,0.0859,0.0887,0.0812,0.0809,0.0861,0.0869,0.0869,0.0898,0.0898,0.0898,0.0898,0.0898,0.0898,-0.0295,-0.0242,-0.0215,-0.0102,-0.0041,0.009,0.0175,0.0341,0.0512,0.0788,0.0969,0.109,0.1069,0.0888,0.0795,0.0789,0.0789,0.0757,0.076,0.0747,0.0747,0.0747,0.074,0.0742,0.0742,0.0821,0.0821,0.0821]}],[{"header":{"parameterUnit":"m.s-1","parameterCategory":2,"la1":30.2991,"la2":30.254,"lo1":-89.0895,"lo2":-89.0444,"dy":0.0017,"dx":0.0017,"nx":28,"ny":28,"refTime":"2026-02-03T09:00:00:Z","depth":"2","parameterNumber":2,"parameterNumberName":"U-component_of_CURRENTS"},"data":[0,0,0,0,0,0,0,0,0,0,0,0,0,0,0,0,0,0,0,0,0,0,0,0,0,0,0,0,0,0,0,0,0,0,0,0,0,0,0,0,0,0,0,0,0,0,0,0,0,0,0,0,0,0,0,0,0,0,0.0414,0.0415,0,0.0413,0.0413,0.0413,0.0391,0.039,0.039,0.0389,0.0408,0.0409,0.041,0,0,0,0,0,0,0,0,0,0,0,0,0,0.0391,0.0391,0.0414,0.0415,0.0415,0.0413,0.0413,0.0413,0.0391,0.039,0.039,0.0389,0.0408,0.0409,0.041,0,0,0,0,0,0,0,0,0,0,0,0,0,0.0395,0.0392,0.0414,0.0405,0.0404,0.0413,0.0413,0.0413,0.0391,0.039,0.039,0.0389,0.0408,0.0409,0.041,0.043,0,0,0.0414,0.0415,0,0,0,0,0,0,0,0,0.0395,0.0395,0.0406,0.0406,0.0405,0.0403,0.0412,0.042,0.0391,0.0394,0.0389,0.0389,0.041,0.0411,0.0409,0.0431,0.0432,0.0415,0.0415,0.0416,0.0416,0,0,0,0,0,0,0,0.0394,0.0395,0.0412,0.0406,0.0406,0.0398,0.0398,0.0413,0.0404,0.0394,0.0392,0.0395,0.041,0.0408,0.041,0.0432,0.0415,0.0416,0.0416,0.0417,0.0598,0.0602,0,0,0,0,0,0,0.0399,0.0395,0.0412,0.0412,0.04,0.0399,0.0399,0.0403,0.0404,0.0404,0.0396,0.0394,0.0406,0.0408,0.041,0.0505,0.0416,0.0417,0.0418,0.0594,0.0599,0.0604,0,0,0,0,0,0,0.0399,0.0401,0.0412,0.0405,0.0406,0.0401,0.0405,0.0403,0.041,0.0406,0.0405,0.0406,0.0406,0.0409,0.0451,0.0503,0.0418,0.0419,0.059,0.0596,0.0601,0.0649,0,0,0,0,0,0,0.0398,0.0401,0.0414,0.0405,0.0407,0.0428,0.0406,0.0403,0.0413,0.0411,0.0414,0.0415,0.0406,0.045,0.0453,0.0503,0.042,0.0584,0.0592,0.0599,0.0642,0.0656,0.0667,0,0,0,0,0,0.0397,0.0414,0.0415,0.0418,0.0422,0.0429,0.043,0.0422,0.0414,0.0425,0.044,0.0415,0.0501,0.0453,0.0456,0.0508,0.0581,0.059,0.0599,0.0636,0.0653,0.0667,0,0,0,0,0,0,0.0417,0.0413,0.0414,0.0431,0.0437,0.0426,0.0435,0.0433,0.045,0.0451,0.0446,0.0449,0.0516,0.0515,0.0462,0.0593,0.0546,0.0556,0.0574,0.0589,0.0602,0.0617,0.0421,0,0,0,0,0,0.0428,0.0434,0.0435,0.0451,0.0453,0.0448,0.0453,0.0449,0.0459,0.0464,0.0472,0.0504,0.0556,0.0571,0.0607,0.0658,0.0662,0.0706,0.0719,0.0729,0.0751,0.0819,0.0839,0.0633,0.0633,0.0633,0,0,0.0442,0.044,0.0446,0.0455,0.0454,0.0465,0.0449,0.0459,0.048,0.0467,0.0505,0.0543,0.0584,0.0652,0.0683,0.0652,0.0786,0.074,0.0748,0.0765,0.0831,0.085,0.0867,0.064,0.0638,0.0637,0,0,0.0459,0.0468,0.0474,0.0479,0.0485,0.0486,0.0494,0.0498,0.0512,0.0556,0.0576,0.0651,0.0691,0.0748,0.078,0.089,0.0855,0.0905,0.0966,0.1032,0.1048,0.1063,0.1057,0.1071,0.0903,0.0903,0.0903,0,0.0478,0.0478,0.0481,0.0487,0.0489,0.0498,0.0505,0.0533,0.0556,0.0587,0.0578,0.0715,0.0747,0.0861,0.0914,0.0917,0.092,0.089,0.1044,0.1059,0.1073,0.1064,0.1078,0.0906,0.0906,0.0906,0.0905,0,0.049,0.0495,0.0499,0.0507,0.0521,0.0526,0.0555,0.0589,0.0612,0.0645,0.0757,0.082,0.0902,0.0943,0.0961,0.1098,0.1053,0.1049,0.0989,0.1095,0.108,0.1094,0.0911,0.091,0.0909,0.0908,0,0,0.0515,0.0506,0.0509,0.0503,0.0523,0.053,0.0587,0.0638,0.068,0.0754,0.0826,0.0968,0.1011,0.1058,0.1104,0.1181,0.1281,0.1164,0.1165,0.1129,0.1376,0.1102,0.109,0.1293,0.1297,0.13,0.1309,0,0.0519,0.0513,0.0518,0.0528,0.0523,0.0553,0.0599,0.0659,0.0718,0.0798,0.0917,0.1005,0.105,0.1098,0.1195,0.1273,0.1328,0.1276,0.1306,0.1306,0.1027,0.1102,0.1116,0.1104,0.1323,0.1325,0.1327,0,0.0528,0.0514,0.0511,0.0513,0.0517,0.0537,0.0601,0.0644,0.0773,0.0824,0.0952,0.103,0.1196,0.1198,0.1379,0.1339,0.1373,0.1415,0.1416,0.1158,0.106,0.1047,0.1121,0.135,0.1348,0.1346,0.1345,0,0.0521,0.0514,0.0503,0.0503,0.0519,0.0538,0.056,0.0659,0.0704,0.0848,0.091,0.1086,0.1187,0.1292,0.1397,0.1396,0.1547,0.1539,0.1316,0.1294,0.1312,0.1282,0.165,0.165,0.165,0.165,0.165,0,0.0516,0.0512,0.0494,0.0489,0.0486,0.0514,0.0549,0.0606,0.0706,0.0786,0.0925,0.103,0.1226,0.1334,0.1403,0.1383,0.1544,0.1334,0.1292,0.1319,0.1292,0.152,0.1504,0.165,0.165,0.165,0.165,0,0.0521,0.0508,0.049,0.0484,0.048,0.0483,0.051,0.0546,0.0646,0.0758,0.081,0.1017,0.1136,0.1253,0.1413,0.1351,0.1375,0.132,0.1286,0.1234,0.1073,0.1061,0.1066,0.1057,0.1049,0.1043,0.1037,0,0.0523,0.0511,0.0477,0.0455,0.0448,0.0446,0.0448,0.0512,0.0559,0.0751,0.0812,0.0961,0.1002,0.1062,0.1095,0.1072,0.12,0.0982,0.0966,0.1061,0.1021,0.1022,0.102,0.103,0.1025,0.1021,0.1017,0,0.0523,0.0512,0.049,0.0434,0.0412,0.039,0.0405,0.0434,0.0544,0.064,0.0777,0.0802,0.0846,0.0844,0.0749,0.0749,0.0973,0.0873,0.1089,0.1101,0.1007,0.0972,0.0979,0.098,0.0984,0.0987,0.0989,0.099,0.0527,0.0506,0.0467,0.0421,0.0379,0.0353,0.0366,0.0396,0.0461,0.062,0.0673,0.0713,0.0682,0.0533,0.0524,0.0571,0.0591,0.0605,0.0631,0.0658,0.0577,0.0467,0.0322,0.0322,0.0322,0.0322,0.0322,0,0.0536,0.0512,0.0455,0.0388,0.0328,0.0337,0.0356,0.0403,0.0481,0.0548,0.0613,0.0519,0.0421,0.046,0.0459,0.0322,0.0454,0.0322,0.0589,0.0621,0.0651,0.0583,0.0325,0.0325,0.0325,0.0325,0,0,0.0541,0.05,0.0465,0.0361,0.0328,0.0325,0.0361,0.0431,0.0487,0.052,0.0538,0.0481,0.0418,0.0396,0.0347,0.0384,0.0517,0.0357,0.0358,0.071,0.0742,0.0804,0.0728,0,0,0,0,0]},{"header":{"parameterUnit":"m.s-1","parameterCategory":2,"la1":30.2991,"la2":30.254,"lo1":-89.0895,"lo2":-89.0444,"dy":0.0017,"dx":0.0017,"nx":28,"ny":28,"refTime":"2026-02-03T09:00:00:Z","depth":"2","parameterNumber":3,"parameterNumberName":"V-component_of_CURRENTS"},"data":[0,0,0,0,0,0,0,0,0,0,0,0,0,0,0,0,0,0,0,0,0,0,0,0,0,0,0,0,0,0,0,0,0,0,0,0,0,0,0,0,0,0,0,0,0,0,0,0,0,0,0,0,0,0,0,0,0,0,0.0092,0.0091,0,0.0054,0.0054,0.0053,-0.0013,-0.0014,-0.0016,-0.0017,-0.0126,-0.0128,-0.0129,0,0,0,0,0,0,0,0,0,0,0,0,0,0.0133,0.0132,0.0092,0.0091,0.0091,0.0054,0.0054,0.0053,-0.0013,-0.0014,-0.0016,-0.0018,-0.0126,-0.0128,-0.013,0,0,0,0,0,0,0,0,0,0,0,0,0,0.0108,0.0132,0.0092,0.0053,0.0049,0.0054,0.0054,0.0053,-0.0013,-0.0015,-0.0017,-0.0018,-0.0125,-0.0127,-0.013,-0.0105,0,0,-0.0137,-0.0139,0,0,0,0,0,0,0,0,0.0109,0.0106,0.0059,0.0055,0.0051,0.0022,0.0028,-0.0004,-0.0012,0.0012,-0.0017,-0.0019,-0.0082,-0.0088,-0.0089,-0.011,-0.0115,-0.0138,-0.0139,-0.014,-0.0141,0,0,0,0,0,0,0,0.0111,0.0108,0.0078,0.0059,0.0054,0.0046,0.004,0.0022,-0.0024,0.0009,0.0004,-0.0001,-0.0085,-0.0086,-0.0092,-0.0117,-0.0138,-0.014,-0.0141,-0.0142,-0.0117,-0.0115,0,0,0,0,0,0,0.0115,0.011,0.0079,0.0076,0.0075,0.0047,0.004,0.0034,-0.0023,-0.0033,0.0001,-0.0004,-0.0081,-0.0089,-0.0096,-0.0047,-0.014,-0.0143,-0.0144,-0.0119,-0.0116,-0.0114,0,0,0,0,0,0,0.0116,0.0113,0.008,0.0091,0.0087,0.0048,0.0042,0.0035,0.0013,-0.0028,-0.004,-0.0016,-0.0083,-0.0093,-0.0106,-0.0053,-0.0144,-0.0146,-0.0121,-0.0118,-0.0115,0.0036,0,0,0,0,0,0,0.0117,0.0113,0.0107,0.0092,0.0086,0.0084,0.0044,0.0035,0.0014,0.0006,-0.0046,-0.0057,-0.0085,-0.0102,-0.0109,-0.0058,-0.0148,-0.0124,-0.012,-0.0116,0.0028,0.0044,0.0057,0,0,0,0,0,0.0119,0.0125,0.0107,0.0103,0.008,0.0084,0.0082,0.0048,0.0015,0.0018,-0.0013,-0.0057,-0.0081,-0.0102,-0.0111,-0.006,-0.0126,-0.0121,-0.0116,0.0022,0.0041,0.0057,0,0,0,0,0,0,0.0139,0.0118,0.0098,0.0095,0.0088,0.0073,0.0069,0.0045,0.0025,0.0011,-0.0036,-0.0047,-0.0032,-0.0072,-0.0095,-0.004,-0.0108,-0.0104,0.0,0.0018,0.0032,0.0069,-0.015,0,0,0,0,0,0.0142,0.0137,0.0121,0.0119,0.0114,0.0089,0.0082,0.0064,0.0046,0.0033,0.0004,-0.0019,-0.0012,-0.0022,-0.0031,-0.0011,-0.0055,0.0018,0.0033,0.0045,0.007,0.0039,0.0053,-0.0098,-0.0098,-0.0098,0,0,0.015,0.0136,0.0133,0.0122,0.0109,0.0136,0.008,0.0076,0.0108,0.0026,0.005,0.0026,0.0004,0.0041,0.0044,0.0008,0.0067,0.0052,0.0063,0.0081,0.0046,0.006,0.0073,-0.0094,-0.0095,-0.0096,0,0,0.0178,0.015,0.0161,0.0166,0.0154,0.0155,0.0153,0.014,0.0139,0.0161,0.0128,0.0138,0.012,0.0141,0.0144,0.0231,0.0146,0.0216,0.0319,0.0289,0.0301,0.0311,0.028,0.0286,0.0222,0.0222,0.0222,0,0.0184,0.02,0.0168,0.0191,0.0209,0.0169,0.0209,0.0218,0.0207,0.0235,0.0183,0.0215,0.0186,0.0265,0.0301,0.0269,0.0222,0.0256,0.0309,0.0318,0.0325,0.029,0.0295,0.023,0.0229,0.0228,0.0228,0,0.0233,0.0247,0.0258,0.0281,0.03,0.0324,0.034,0.0364,0.0354,0.0368,0.042,0.039,0.041,0.0412,0.0385,0.0449,0.0388,0.0331,0.0265,0.035,0.0307,0.0309,0.0241,0.0238,0.0236,0.0234,0,0,0.0247,0.0285,0.0287,0.0326,0.0351,0.0381,0.0451,0.0517,0.0573,0.0567,0.0637,0.0666,0.0632,0.0635,0.0598,0.0584,0.0602,0.0487,0.0482,0.046,0.0523,0.0549,0.0552,0.0534,0.0535,0.0536,0.0473,0,0.0295,0.036,0.0374,0.0465,0.0508,0.0528,0.0605,0.0661,0.0689,0.0746,0.0743,0.0774,0.0721,0.0718,0.071,0.0622,0.0613,0.0624,0.0442,0.0438,0.0453,0.0559,0.0453,0.0393,0.0474,0.0474,0.0475,0,0.0343,0.0385,0.0463,0.0572,0.0594,0.0643,0.0764,0.083,0.0909,0.0925,0.0963,0.0933,0.0954,0.086,0.0787,0.0784,0.0683,0.0605,0.0599,0.0576,0.0469,0.032,0.0393,0.0477,0.0477,0.0477,0.0477,0,0.0371,0.0462,0.0528,0.0558,0.066,0.0714,0.0778,0.0875,0.0944,0.1018,0.1046,0.1064,0.1036,0.0945,0.0808,0.078,0.0692,0.0621,0.0561,0.0559,0.0416,0.0402,0.0573,0.0573,0.0573,0.0574,0.0574,0,0.0423,0.0483,0.0537,0.0574,0.0676,0.0743,0.0859,0.0927,0.1022,0.1104,0.1116,0.1155,0.1044,0.0983,0.0854,0.0735,0.0724,0.0619,0.0564,0.0468,0.046,0.0481,0.0471,0.0571,0.0572,0.0572,0.0573,0,0.0441,0.0472,0.0552,0.0646,0.0678,0.0745,0.0875,0.0973,0.1045,0.114,0.1155,0.12,0.112,0.1013,0.0855,0.0787,0.0666,0.0615,0.0524,0.0465,0.0539,0.0537,0.0563,0.0563,0.0564,0.0565,0.0565,0,0.0459,0.0491,0.057,0.0606,0.0638,0.0742,0.0827,0.0952,0.1044,0.1165,0.1207,0.1186,0.1135,0.0971,0.0822,0.0637,0.0652,0.0508,0.0472,0.0604,0.0547,0.0544,0.0542,0.0318,0.0316,0.0315,0.0314,0,0.0494,0.0494,0.0548,0.0601,0.0671,0.0787,0.0901,0.0971,0.1119,0.1197,0.1264,0.1221,0.1049,0.0839,0.0652,0.0542,0.0543,0.0483,0.0617,0.0371,0.0377,0.032,0.0325,0.0303,0.0304,0.0305,0.0305,0.0306,0.0498,0.0523,0.0558,0.0613,0.069,0.0798,0.0878,0.1008,0.1137,0.1204,0.1208,0.11,0.0872,0.0554,0.0442,0.0409,0.0429,0.0385,0.0386,0.0389,0.0406,0.0417,0.0352,0.0353,0.0354,0.0355,0.0356,0,0.0511,0.0525,0.0578,0.0653,0.073,0.076,0.091,0.0987,0.1099,0.1115,0.1094,0.0809,0.056,0.0409,0.0292,0.0226,0.0187,0.0252,0.0177,0.0187,0.0197,0.0203,0.0095,0.0095,0.0095,0.0095,0,0,0.0519,0.0555,0.0576,0.0662,0.07,0.078,0.0838,0.0939,0.0971,0.0979,0.0892,0.0657,0.0472,0.0316,0.0196,0.0175,0.0219,0.0173,0.0374,0.0306,0.0317,0.0249,0.0268,0,0,0,0,0]}],[{"header":{"parameterUnit":"m.s-1","parameterCategory":2,"la1":30.2991,"la2":30.254,"lo1":-89.0895,"lo2":-89.0444,"dy":0.0017,"dx":0.0017,"nx":28,"ny":28,"refTime":"2026-02-03T09:00:00:Z","depth":"4","parameterNumber":2,"parameterNumberName":"U-component_of_CURRENTS"},"data":[0,0,0,0,0,0,0,0,0,0,0,0,0,0,0,0,0,0,0,0,0,0,0,0,0,0,0,0,0,0,0,0,0,0,0,0,0,0,0,0,0,0,0,0,0,0,0,0,0,0,0,0,0,0,0,0,0,0,-0.0528,-0.0528,0,-0.0519,-0.0519,-0.0519,-0.0523,-0.0523,-0.0524,-0.0524,-0.0534,-0.0534,-0.0534,0,0,0,0,0,0,0,0,0,0,0,0,0,-0.0543,-0.0543,-0.0528,-0.0528,-0.0528,-0.0519,-0.0519,-0.0519,-0.0523,-0.0524,-0.0524,-0.0524,-0.0534,-0.0534,-0.0534,0,0,0,0,0,0,0,0,0,0,0,0,0,-0.0535,-0.0543,-0.0528,-0.0529,-0.0529,-0.0519,-0.0519,-0.0519,-0.0523,-0.0524,-0.0524,-0.0524,-0.0534,-0.0534,-0.0534,-0.0527,0,0,-0.0534,-0.0534,0,0,0,0,0,0,0,0,-0.0536,-0.0535,-0.0529,-0.0529,-0.0529,-0.0523,-0.0528,-0.0522,-0.0523,-0.0525,-0.0524,-0.0524,-0.0532,-0.0532,-0.0529,-0.0527,-0.0527,-0.0534,-0.0534,-0.0534,-0.0534,0,0,0,0,0,0,0,-0.0536,-0.0535,-0.0524,-0.0529,-0.0529,-0.0528,-0.0527,-0.0527,-0.0527,-0.0525,-0.0525,-0.0525,-0.0532,-0.0529,-0.0529,-0.0528,-0.0534,-0.0534,-0.0534,-0.0534,-0.0525,-0.0525,0,0,0,0,0,0,-0.0538,-0.0536,-0.0525,-0.0524,-0.0534,-0.0527,-0.0527,-0.0524,-0.0526,-0.0527,-0.0524,-0.0525,-0.0529,-0.0529,-0.053,-0.0507,-0.0534,-0.0534,-0.0534,-0.0525,-0.0525,-0.0525,0,0,0,0,0,0,-0.0538,-0.0537,-0.0525,-0.053,-0.0528,-0.0527,-0.0524,-0.0524,-0.053,-0.0526,-0.0527,-0.0531,-0.0529,-0.053,-0.0543,-0.0508,-0.0534,-0.0534,-0.0526,-0.0525,-0.0525,-0.0471,0,0,0,0,0,0,-0.0538,-0.0537,-0.0541,-0.053,-0.0528,-0.0523,-0.0524,-0.0523,-0.0528,-0.0529,-0.0532,-0.0533,-0.0529,-0.0543,-0.0543,-0.0509,-0.0534,-0.0526,-0.0526,-0.0525,-0.0473,-0.0469,-0.0465,0,0,0,0,0,-0.0539,-0.0541,-0.0541,-0.054,-0.0532,-0.0523,-0.0522,-0.0522,-0.0528,-0.0529,-0.0539,-0.0533,-0.0539,-0.0543,-0.0543,-0.0508,-0.0526,-0.0526,-0.0525,-0.0475,-0.0469,-0.0465,0,0,0,0,0,0,-0.055,-0.0541,-0.0541,-0.0541,-0.0535,-0.0524,-0.0528,-0.0527,-0.0534,-0.054,-0.054,-0.0541,-0.0532,-0.054,-0.0545,-0.0506,-0.0527,-0.0527,-0.0489,-0.0484,-0.048,-0.0474,-0.0534,0,0,0,0,0,-0.0554,-0.0555,-0.0544,-0.0545,-0.0544,-0.0538,-0.0537,-0.0535,-0.0536,-0.054,-0.0542,-0.0542,-0.0527,-0.0525,-0.0521,-0.0511,-0.0563,-0.0487,-0.0483,-0.0479,-0.0476,-0.0576,-0.0581,-0.0523,-0.0523,-0.0523,0,0,-0.0559,-0.0555,-0.0556,-0.0548,-0.0545,-0.0538,-0.0539,-0.0538,-0.0522,-0.054,-0.0533,-0.0532,-0.0524,-0.0503,-0.0499,-0.0507,-0.0517,-0.0478,-0.0475,-0.0474,-0.0576,-0.0582,-0.0587,-0.0523,-0.0523,-0.0523,0,0,-0.0562,-0.0566,-0.0565,-0.056,-0.0555,-0.0547,-0.0549,-0.0542,-0.053,-0.0511,-0.0521,-0.0527,-0.049,-0.0497,-0.0485,-0.0467,-0.0495,-0.0439,-0.0408,-0.0504,-0.051,-0.0516,-0.0567,-0.0578,-0.0434,-0.0434,-0.0434,0,-0.0569,-0.0561,-0.0563,-0.0558,-0.0544,-0.0552,-0.0534,-0.0526,-0.0523,-0.0505,-0.0501,-0.0489,-0.0487,-0.0479,-0.0446,-0.0458,-0.0497,-0.0422,-0.0501,-0.0508,-0.0515,-0.0566,-0.0579,-0.0431,-0.0432,-0.0432,-0.0432,0,-0.0564,-0.0561,-0.0561,-0.0552,-0.0537,-0.053,-0.0509,-0.0496,-0.0472,-0.0461,-0.0444,-0.0462,-0.0448,-0.044,-0.0415,-0.0446,-0.045,-0.0488,-0.0514,-0.0518,-0.057,-0.0584,-0.0428,-0.0429,-0.0429,-0.043,0,0,-0.0562,-0.0557,-0.0557,-0.053,-0.0528,-0.0499,-0.0476,-0.0438,-0.0419,-0.0416,-0.0411,-0.0372,-0.0387,-0.0379,-0.0389,-0.0457,-0.0518,-0.0464,-0.047,-0.0513,-0.0691,-0.0568,-0.0572,-0.0565,-0.0568,-0.057,-0.0699,0,-0.0553,-0.0533,-0.0528,-0.0487,-0.0466,-0.0446,-0.0408,-0.0378,-0.0366,-0.0377,-0.04,-0.0392,-0.0363,-0.0353,-0.0415,-0.051,-0.0556,-0.0477,-0.0681,-0.0686,-0.0578,-0.0586,-0.0579,-0.071,-0.0713,-0.0716,-0.0718,0,-0.0538,-0.0523,-0.0479,-0.0418,-0.0402,-0.0349,-0.0281,-0.0258,-0.0277,-0.0275,-0.0305,-0.0346,-0.0409,-0.0409,-0.0564,-0.0508,-0.0564,-0.0647,-0.0656,-0.0571,-0.059,-0.0713,-0.0745,-0.0743,-0.0741,-0.0739,-0.0737,0,-0.0507,-0.0475,-0.0424,-0.041,-0.0355,-0.0272,-0.0215,-0.0194,-0.0193,-0.0221,-0.0276,-0.0342,-0.0419,-0.0513,-0.0629,-0.0593,-0.0847,-0.0841,-0.0786,-0.0778,-0.0878,-0.0871,-0.095,-0.0949,-0.0949,-0.0949,-0.0948,0,-0.0481,-0.0445,-0.0376,-0.0345,-0.0226,-0.0192,-0.0101,-0.0063,-0.0108,-0.0168,-0.0211,-0.0313,-0.0453,-0.061,-0.0672,-0.0771,-0.0878,-0.0774,-0.0807,-0.0846,-0.0834,-0.0887,-0.0878,-0.0954,-0.0953,-0.0952,-0.0951,0,-0.045,-0.0432,-0.0361,-0.0263,-0.0202,-0.0096,-0.001,-0.0005,-0.0031,-0.0142,-0.0163,-0.0328,-0.0465,-0.0614,-0.0814,-0.083,-0.0941,-0.0947,-0.0967,-0.1001,-0.0785,-0.0772,-0.0871,-0.0868,-0.0865,-0.0863,-0.0861,0,-0.0435,-0.0399,-0.0286,-0.0208,-0.013,0.0002,0.0058,0.007,0.0001,-0.0164,-0.027,-0.0402,-0.0503,-0.0694,-0.0809,-0.0909,-0.09,-0.0958,-0.0841,-0.0756,-0.0781,-0.0772,-0.0762,-0.0857,-0.0856,-0.0855,-0.0855,0,-0.0403,-0.0364,-0.0306,-0.0154,-0.004,0.0021,0.0078,0.0027,-0.0066,-0.0144,-0.0309,-0.0379,-0.0545,-0.0638,-0.0723,-0.0802,-0.0923,-0.0928,-0.0933,-0.0823,-0.0741,-0.0765,-0.0759,-0.0845,-0.0847,-0.0847,-0.0848,0,-0.037,-0.0323,-0.0243,-0.0094,0.0005,0.003,0.0066,-0.0003,-0.005,-0.0263,-0.032,-0.0448,-0.0552,-0.0588,-0.0693,-0.0721,-0.0679,-0.0678,-0.0694,-0.0706,-0.0589,-0.0455,-0.05,0,0,0,0,0,-0.0335,-0.0294,-0.0186,-0.0048,0.0024,0.0068,0.0041,0.0011,-0.0127,-0.0217,-0.0253,-0.0369,-0.0443,-0.051,-0.0499,-0.0615,-0.0695,-0.0604,-0.0705,-0.0793,-0.0804,-0.0679,0,0,0,0,0,0,-0.0308,-0.024,-0.0199,-0.0066,0.0011,0.0063,0.0034,-0.0051,-0.0108,-0.023,-0.0257,-0.0333,-0.0398,-0.0427,-0.0485,-0.0506,-0.0559,-0.0665,-0.0663,-0.0787,-0.0797,-0.0805,-0.0681,0,0,0,0,0]},{"header":{"parameterUnit":"m.s-1","parameterCategory":2,"la1":30.2991,"la2":30.254,"lo1":-89.0895,"lo2":-89.0444,"dy":0.0017,"dx":0.0017,"nx":28,"ny":28,"refTime":"2026-02-03T09:00:00:Z","depth":"4","parameterNumber":3,"parameterNumberName":"V-component_of_CURRENTS"},"data":[0,0,0,0,0,0,0,0,0,0,0,0,0,0,0,0,0,0,0,0,0,0,0,0,0,0,0,0,0,0,0,0,0,0,0,0,0,0,0,0,0,0,0,0,0,0,0,0,0,0,0,0,0,0,0,0,0,0,0.0399,0.0399,0,0.0396,0.0396,0.0396,0.0413,0.0414,0.0414,0.0415,0.0421,0.0421,0.042,0,0,0,0,0,0,0,0,0,0,0,0,0,0.039,0.039,0.0399,0.0399,0.0399,0.0396,0.0396,0.0396,0.0413,0.0414,0.0414,0.0415,0.0421,0.0421,0.042,0,0,0,0,0,0,0,0,0,0,0,0,0,0.0391,0.039,0.0399,0.0407,0.0407,0.0396,0.0396,0.0396,0.0413,0.0414,0.0414,0.0415,0.0421,0.0421,0.042,0.0403,0,0,0.0419,0.0419,0,0,0,0,0,0,0,0,0.0391,0.0392,0.0406,0.0406,0.0407,0.0406,0.0395,0.0399,0.0413,0.0411,0.0415,0.0415,0.0416,0.0416,0.0414,0.0404,0.0404,0.0419,0.0419,0.0419,0.0418,0,0,0,0,0,0,0,0.0391,0.0392,0.0398,0.0405,0.0406,0.0401,0.0402,0.0396,0.041,0.0411,0.0412,0.0412,0.0417,0.0414,0.0414,0.0404,0.0419,0.0419,0.0418,0.0418,0.0379,0.0378,0,0,0,0,0,0,0.0392,0.0392,0.0398,0.0398,0.0401,0.0401,0.0402,0.0405,0.041,0.0411,0.0411,0.0413,0.0415,0.0415,0.0415,0.0373,0.0419,0.0418,0.0418,0.038,0.0379,0.0378,0,0,0,0,0,0,0.0392,0.0393,0.0398,0.0394,0.0395,0.04,0.0404,0.0405,0.0413,0.041,0.0411,0.0419,0.0415,0.0415,0.0416,0.0374,0.0418,0.0418,0.038,0.0379,0.0378,0.0304,0,0,0,0,0,0,0.0392,0.0393,0.0399,0.0395,0.0395,0.039,0.0403,0.0404,0.0411,0.0413,0.0416,0.0417,0.0416,0.0417,0.0416,0.0375,0.0417,0.0381,0.038,0.0378,0.0307,0.03,0.0294,0,0,0,0,0,0.0392,0.0391,0.0399,0.04,0.0402,0.039,0.0389,0.0395,0.0411,0.0407,0.0416,0.0418,0.0406,0.0417,0.0415,0.0373,0.0382,0.038,0.0379,0.031,0.0302,0.0294,0,0,0,0,0,0,0.0386,0.0393,0.0402,0.0403,0.0398,0.0393,0.0392,0.0399,0.0403,0.0412,0.0415,0.0416,0.0396,0.0405,0.0416,0.0359,0.0391,0.0389,0.0339,0.0331,0.0325,0.0311,0.0417,0,0,0,0,0,0.0389,0.0394,0.0394,0.0394,0.0394,0.0396,0.0395,0.0399,0.0401,0.0404,0.0415,0.0413,0.0384,0.0378,0.0371,0.0346,0.0373,0.0318,0.0311,0.0305,0.0295,0.0303,0.0296,0.0372,0.0372,0.0372,0,0,0.0388,0.0391,0.0395,0.0394,0.0394,0.0382,0.0398,0.0395,0.0377,0.0403,0.0399,0.0397,0.0376,0.0342,0.0333,0.0346,0.0303,0.0303,0.0298,0.029,0.0301,0.0293,0.0287,0.037,0.0371,0.0371,0,0,0.0377,0.039,0.0389,0.038,0.0379,0.0379,0.038,0.0386,0.038,0.0373,0.0372,0.0349,0.0344,0.03,0.0276,0.0232,0.0271,0.0236,0.0183,0.0191,0.0185,0.018,0.0224,0.0223,0.0228,0.0228,0.0228,0,0.0377,0.0373,0.0384,0.037,0.0359,0.0377,0.036,0.0347,0.0355,0.0328,0.0368,0.0314,0.0308,0.0214,0.02,0.021,0.025,0.021,0.0182,0.0177,0.0173,0.022,0.022,0.0224,0.0224,0.0225,0.0225,0,0.0358,0.0352,0.0346,0.0339,0.0329,0.0318,0.0302,0.0291,0.03,0.0281,0.0225,0.0222,0.0187,0.0169,0.017,0.0112,0.0164,0.0176,0.0199,0.0161,0.0213,0.0214,0.0219,0.022,0.0221,0.0222,0,0,0.036,0.034,0.0337,0.0323,0.0311,0.0298,0.0254,0.0205,0.0156,0.0166,0.0103,0.0054,0.0068,0.0043,0.0039,0.0035,0.0046,0.0098,0.01,0.0138,0.0107,0.0062,0.0061,0.0067,0.0066,0.0065,0.0163,0,0.0343,0.0318,0.0305,0.0271,0.0259,0.0235,0.0184,0.0138,0.0106,0.0056,0.0017,-0.0019,0.0012,0.0003,-0.0003,0.0029,0.0044,0.0021,0.0142,0.0145,0.0106,0.0057,0.0063,0.0164,0.0164,0.0165,0.0165,0,0.0328,0.0313,0.0298,0.023,0.0218,0.0215,0.0131,0.0081,-0.0012,-0.0042,-0.0091,-0.0104,-0.0135,-0.0078,-0.004,-0.0044,0.003,0.0067,0.0072,0.0052,0.0101,0.0207,0.0168,0.0168,0.0167,0.0167,0.0167,0,0.0333,0.0292,0.0289,0.0275,0.0219,0.0205,0.0173,0.0079,-0.0001,-0.0072,-0.0125,-0.0159,-0.0161,-0.0097,-0.0019,-0.0012,0.005,0.0069,0.0097,0.0098,0.0146,0.0151,0.011,0.011,0.011,0.011,0.0109,0,0.0317,0.0297,0.0316,0.0306,0.0284,0.0241,0.0176,0.0114,0.0005,-0.0103,-0.0136,-0.0205,-0.0159,-0.0135,-0.0038,0.003,0.0048,0.0074,0.01,0.0118,0.0117,0.0149,0.0153,0.0113,0.0112,0.0112,0.0111,0,0.0317,0.0326,0.0319,0.0299,0.0301,0.0302,0.0207,0.0111,0.0037,-0.0095,-0.0114,-0.0216,-0.0199,-0.0152,-0.0057,-0.0006,0.0076,0.0109,0.0141,0.0171,0.0132,0.013,0.0131,0.0129,0.0128,0.0128,0.0127,0,0.0307,0.032,0.034,0.0355,0.0371,0.0353,0.0287,0.0172,0.0046,-0.0107,-0.0193,-0.0225,-0.0272,-0.0172,-0.0102,0.0041,0.0063,0.0129,0.0094,0.0098,0.0125,0.0125,0.0125,0.0125,0.0125,0.0125,0.0124,0,0.028,0.0323,0.032,0.0368,0.0366,0.0275,0.0186,0.0108,-0.0069,-0.0131,-0.0262,-0.026,-0.0271,-0.0208,-0.0108,0.0005,0.0084,0.0118,0.0121,0.0089,0.0092,0.012,0.0121,0.0121,0.0121,0.0122,0.0122,0,0.027,0.0285,0.0315,0.0355,0.034,0.0219,0.016,0.001,-0.011,-0.0279,-0.029,-0.0299,-0.0304,-0.0225,-0.0118,-0.0046,-0.0034,0.0017,0.0026,0.003,-0.0048,-0.0062,-0.0075,0,0,0,0,0,0.0256,0.0256,0.0274,0.0267,0.0241,0.0217,0.0071,-0.002,-0.0143,-0.0244,-0.0281,-0.0287,-0.0226,-0.0206,-0.0144,-0.0134,-0.001,-0.0058,0.0057,0.0101,0.0105,0.0022,0,0,0,0,0,0,0.0234,0.0251,0.0258,0.0197,0.0183,0.0068,-0.0003,-0.0113,-0.0192,-0.0257,-0.0229,-0.0242,-0.0181,-0.0242,-0.0126,-0.0113,-0.0027,-0.0037,-0.0035,0.0099,0.0103,0.0106,0.0022,0,0,0,0,0]}]]